Location: Allie Creek
(37.5926°N, 89.8526°W)
Time: 14:41:28
(UTC+00:00)

Meteor 1-27 Rocket - Pass Details

Date: 19 April 2024
Orbit: 829 x 909 km, 81.3° (Epoch: 26 May)

Event Time Altitude Azimuth Distance (km) Brightness Sun altitude
Exits shadow 09:16:05 28° 292° (WNW) 1,594 4.8 -22.6°
Drops below altitude 10° 09:20:37 10° 345° (NNW) 2,502 6.4 -21.9°
Sets 09:23:24 0° 357° (N) 3,429 7.3 -21.4°
